Troutdale, OR

4:49 PM PDT on August 28, 2016 (GMT -0700)
Portland-Troutdale

Weather History for KTTD - November, 2011

Change the Weather History Date:

Tuesday, November 29, 2011

  Actual Average Record
Temperature  
Mean Temperature 43 °F 42 °F  
Max Temperature 46 °F 48 °F 60 °F (1995)
Min Temperature 39 °F 36 °F 16 °F (1985)
Degree Days  
Heating Degree Days 22 23  
Month to date heating degree days 577 558  
Cooling Degree Days 0 0  
Month to date cooling degree days 0 0  
Moisture  
Dew Point 39 °F    
Average Humidity 91    
Maximum Humidity 100    
Minimum Humidity 82    
Precipitation  
Precipitation 0.02 in 0.24 in 1.19 in (2003)
Month to date precipitation 5.43 7.02  
Year to date precipitation 34.08 39.54  
Snow  
Snow 0.00 in - - ()
Month to date snowfall 0.0  
Snow Depth 0.00 in    
Sea Level Pressure  
Sea Level Pressure 30.33 in    
Wind  
Wind Speed 3 mph (SW)    
Max Wind Speed 17 mph    
Max Gust Speed 24 mph    
Visibility 8 miles    
Events Rain    
T = Trace of Precipitation, MM = Missing Value Source: NWS Daily Summary

Daily Weather History Graph

Daily Weather History Graph

Search for Another Location

Airport or City:

Trip Planner

Search our weather history database for the weather conditions in past years. The results will help you decide how hot, cold, wet, or windy it might be!

Date:

Astronomy

Nov. 29, 2011 Rise Set
Actual Time 7:26 AM PST 4:28 PM PST
Civil Twilight 6:53 AM PST 5:01 PM PST
Nautical Twilight 6:16 AM PST 5:38 PM PST
Astronomical Twilight 5:41 AM PST 6:14 PM PST
Moon 11:11 AM PST (11/29) 9:34 PM PST (11/29)
Length of Visible Light 10h 08m
Length of Day
9h 01m
Waxing Crescent, 25% of the Moon is Illuminated
Nov 29
Waxing Crescent
Dec 2
First Quarter
Dec 10
Full
Dec 17
Last Quarter
Dec 24
New

Hourly Weather History & Observations

Time (PST) Temp. Windchill Dew Point Humidity Pressure Visibility Wind Dir Wind Speed Gust Speed Precip Events Conditions
12:53 AM 41.0 °F 39.0 °F 39.9 °F 96% 30.40 in 9.0 mi West 3.5 mph - N/A   Overcast
1:02 AM 41.0 °F - 39.2 °F 93% 30.39 in 9.0 mi Calm Calm - N/A   Overcast
1:53 AM 41.0 °F - 39.9 °F 96% 30.39 in 9.0 mi Calm Calm - N/A   Overcast
2:51 AM 41.0 °F - 39.2 °F 93% 30.39 in 8.0 mi Calm Calm - N/A   Overcast
2:53 AM 41.0 °F - 39.9 °F 96% 30.39 in 8.0 mi Calm Calm - N/A   Overcast
3:04 AM 41.0 °F - 39.2 °F 93% 30.38 in 8.0 mi Calm Calm - N/A   Overcast
3:17 AM 39.2 °F - 39.2 °F 100% 30.37 in 8.0 mi Calm Calm - N/A   Overcast
3:53 AM 39.9 °F - 37.0 °F 89% 30.37 in 10.0 mi Calm Calm - N/A   Overcast
4:50 AM 39.2 °F - 39.2 °F 100% 30.36 in 4.0 mi Calm Calm - N/A   Overcast
4:53 AM 39.9 °F 37.8 °F 39.0 °F 97% 30.36 in 4.0 mi West 3.5 mph - N/A   Overcast
5:02 AM 39.2 °F 37.0 °F 39.2 °F 100% 30.36 in 4.0 mi WSW 3.5 mph - N/A   Overcast
5:53 AM 39.9 °F - 39.0 °F 97% 30.36 in 5.0 mi Calm Calm - N/A   Overcast
6:23 AM 39.2 °F 37.0 °F 39.2 °F 100% 30.36 in 2.0 mi WSW 3.5 mph - N/A   Overcast
6:31 AM 39.2 °F 35.9 °F 39.2 °F 100% 30.37 in 1.5 mi West 4.6 mph - N/A   Overcast
6:49 AM 39.2 °F 37.0 °F 39.2 °F 100% 30.37 in 2.5 mi West 3.5 mph - N/A   Overcast
6:53 AM 39.0 °F 36.8 °F 39.0 °F 100% 30.37 in 4.0 mi West 3.5 mph - N/A   Overcast
7:53 AM 39.0 °F 36.8 °F 39.0 °F 100% 30.37 in 4.0 mi WSW 3.5 mph - N/A   Overcast
8:18 AM 39.2 °F - 39.2 °F 100% 30.37 in 2.5 mi Calm Calm - N/A   Overcast
9:06 AM 39.2 °F - 39.2 °F 100% 30.37 in 2.0 mi Calm Calm - N/A   Overcast
9:35 AM 41.0 °F 38.0 °F 37.4 °F 87% 30.36 in 10.0 mi SSE 4.6 mph - N/A   Overcast
9:53 AM 41.0 °F - 37.9 °F 89% 30.37 in 10.0 mi Calm Calm - N/A   Overcast
10:53 AM 41.0 °F 39.0 °F 39.0 °F 93% 30.34 in 10.0 mi South 3.5 mph - N/A   Overcast
12:53 PM 43.0 °F 41.3 °F 39.0 °F 86% 30.30 in 10.0 mi NW 3.5 mph - N/A   Overcast
12:56 PM 42.8 °F 40.1 °F 39.2 °F 87% 30.30 in 10.0 mi NNW 4.6 mph - N/A   Overcast
1:53 PM 43.0 °F - 39.0 °F 86% 30.30 in 10.0 mi Calm Calm - N/A   Overcast
2:53 PM 43.0 °F - 39.0 °F 86% 30.32 in 10.0 mi Calm Calm - N/A   Overcast
3:53 PM 43.0 °F - 39.0 °F 86% 30.33 in 10.0 mi Calm Calm - N/A   Overcast
4:31 PM 42.8 °F 37.5 °F 39.2 °F 87% 30.29 in 10.0 mi SE 9.2 mph - N/A   Overcast
4:53 PM 42.1 °F 36.1 °F 39.0 °F 89% 30.28 in 10.0 mi SSE 10.4 mph 19.6 mph N/A   Overcast
5:20 PM 42.8 °F - 39.2 °F 87% 30.31 in 10.0 mi Calm Calm - N/A   Overcast
5:43 PM 42.8 °F - 39.2 °F 87% 30.30 in 10.0 mi Calm Calm - N/A   Overcast
5:53 PM 43.0 °F 41.3 °F 39.0 °F 86% 30.30 in 10.0 mi ESE 3.5 mph - N/A   Overcast
6:53 PM 42.1 °F - 39.9 °F 92% 30.30 in 10.0 mi Calm Calm - 0.00 in   Overcast
8:53 PM 45.0 °F - 39.9 °F 82% 30.27 in 10.0 mi Calm Calm - 0.00 in Rain Light Rain
9:28 PM 44.6 °F - 39.2 °F 81% 30.27 in 10.0 mi Calm Calm - 0.00 in Rain Light Rain
9:53 PM 45.0 °F 40.6 °F 39.9 °F 82% 30.27 in 10.0 mi SSW 8.1 mph - 0.00 in Rain Light Rain
10:06 PM 46.4 °F 41.1 °F 41.0 °F 81% 30.27 in 10.0 mi SSW 11.5 mph 17.3 mph 0.00 in Rain Light Rain
10:49 PM 44.6 °F 40.2 °F 42.8 °F 93% 30.29 in 8.0 mi SW 8.1 mph - 0.02 in Rain Light Rain
10:53 PM 45.0 °F 40.1 °F 42.1 °F 90% 30.29 in 9.0 mi SSW 9.2 mph - 0.02 in Rain Light Rain
11:02 PM 44.6 °F 39.7 °F 42.8 °F 93% 30.29 in 7.0 mi SSW 9.2 mph - 0.00 in Rain Light Rain
11:53 PM 45.0 °F 39.3 °F 42.1 °F 90% 30.28 in 10.0 mi SW 11.5 mph 24.2 mph 0.00 in   Overcast